Retour au catalogue

STARLINK-34611

ActifCommunicationsVLEO
NORAD 64918·PAYLOAD·🇺🇸 United States

Lancé Jul 26, 2025 depuis Cape Canaveral Space Force Station

Loading…

Prochains Passages (prochaines 24 heures)

TLE

FraisSource: CelesTrak SupGP

Époque: Sep 15, 2026, 02:40 UTC

1 64918C 25157Q   26258.11159722 -.00060292  00000+0 -17813-2 0  2589
2 64918  53.1589 182.5859 0001318  78.7051 180.3865 15.34421866    12

Suivez STARLINK-34611 en temps réel avec AllMySat

Download on the App Store